Rochester, Indiana, United States (46975)
Lat: 41.06N, Lon: 86.22W
Wx Zone: INZ015
Local Info
Past Weather Observations for Today

NOTE: This archive is for the closest National Weather Service station to Rochester. Information may differ from the station used for current weather conditions.

Time Weather Temperature Dewpoint Humidity Pressure Winds Precip Visibility
14:15
Clear
45°F / 7°C 21°F / -6°C 39% 30.33 in
(1027 mb)
SSE 10.4 mph
(SSE 17 kph)
- 10SM
13:55
Clear
45°F / 7°C 21°F / -6°C 39% 30.33 in
(1027 mb)
SE 13.8 mph
(SE 22 kph)
- 10SM
13:35
Clear
45°F / 7°C 19°F / -7°C 37% 30.33 in
(1027 mb)
SE 13.8 mph
(SE 22 kph)
- 10SM
13:15
Clear
43°F / 6°C 19°F / -7°C 39% 30.33 in
(1027 mb)
SSE 10.4 mph
(SSE 17 kph)
- 10SM
12:55
Clear
43°F / 6°C 19°F / -7°C 39% 30.33 in
(1027 mb)
SE 11.5 mph
(SE 19 kph)
- 10SM
12:35
Clear
43°F / 6°C 21°F / -6°C 42% 30.36 in
(1028 mb)
S 11.5 mph
(S 19 kph)
- 10SM
12:15
Clear
41°F / 5°C 19°F / -7°C 42% 30.36 in
(1028 mb)
SE 15 mph
(SE 24 kph)
- 10SM
11:55
Clear
41°F / 5°C 19°F / -7°C 42% 30.36 in
(1028 mb)
SSE 10.4 mph
(SSE 17 kph)
- 10SM
11:35
Clear
41°F / 5°C 19°F / -7°C 42% 30.36 in
(1028 mb)
SE 11.5 mph
(SE 19 kph)
- 10SM
11:15
Clear
39°F / 4°C 19°F / -7°C 45% 30.39 in
(1029 mb)
SSE 6.9 mph
(SSE 11 kph)
- 10SM
10:55
Clear
39°F / 4°C 19°F / -7°C 45% 30.39 in
(1029 mb)
SE 9.2 mph
(SE 15 kph)
- 10SM
10:35
Clear
37°F / 3°C 19°F / -7°C 48% 30.39 in
(1029 mb)
SSE 6.9 mph
(SSE 11 kph)
- 10SM
10:15
Clear
37°F / 3°C 18°F / -8°C 45% 30.39 in
(1029 mb)
S 10.4 mph
(S 17 kph)
- 10SM
09:55
Clear
37°F / 3°C 19°F / -7°C 48% 30.39 in
(1029 mb)
SSE 8.1 mph
(SSE 13 kph)
- 10SM
09:35
Clear
36°F / 2°C 18°F / -8°C 48% 30.39 in
(1029 mb)
S 8.1 mph
(S 13 kph)
- 10SM
09:15
Clear
34°F / 1°C 18°F / -8°C 51% 30.39 in
(1029 mb)
SSE 8.1 mph
(SSE 13 kph)
- 10SM
08:55
Clear
34°F / 1°C 18°F / -8°C 51% 30.39 in
(1029 mb)
SSE 8.1 mph
(SSE 13 kph)
- 10SM
08:35
Clear
32°F / 0°C 16°F / -9°C 51% 30.39 in
(1029 mb)
SSE 6.9 mph
(SSE 11 kph)
- 10SM
08:15
Clear
32°F / 0°C 16°F / -9°C 51% 30.39 in
(1029 mb)
SSE 5.8 mph
(SSE 9 kph)
- 10SM
07:55
Clear
32°F / 0°C 18°F / -8°C 55% 30.36 in
(1028 mb)
SE 6.9 mph
(SE 11 kph)
- 10SM
07:35
Clear
30°F / -1°C 16°F / -9°C 55% 30.36 in
(1028 mb)
SSE 6.9 mph
(SSE 11 kph)
- 10SM
07:15
Clear
28°F / -2°C 14°F / -10°C 55% 30.36 in
(1028 mb)
SSE 5.8 mph
(SSE 9 kph)
- 10SM
06:55
Clear
28°F / -2°C 14°F / -10°C 55% 30.36 in
(1028 mb)
SSE 3.5 mph
(SSE 6 kph)
- 10SM
06:35
Clear
27°F / -3°C 14°F / -10°C 59% 30.33 in
(1027 mb)
Calm - 10SM
06:15
Clear
27°F / -3°C 14°F / -10°C 59% 30.33 in
(1027 mb)
SSE 3.5 mph
(SSE 6 kph)
- 10SM
05:55
Clear
27°F / -3°C 14°F / -10°C 59% 30.33 in
(1027 mb)
SSE 3.5 mph
(SSE 6 kph)
- 10SM
05:35
Clear
27°F / -3°C 14°F / -10°C 59% 30.33 in
(1027 mb)
SSE 4.6 mph
(SSE 7 kph)
- 10SM
05:15
Clear
27°F / -3°C 14°F / -10°C 59% 30.33 in
(1027 mb)
SSE 3.5 mph
(SSE 6 kph)
- 10SM
04:55
Clear
27°F / -3°C 14°F / -10°C 59% 30.33 in
(1027 mb)
Calm - 10SM
04:35
Clear
27°F / -3°C 14°F / -10°C 59% 30.33 in
(1027 mb)
Calm - 10SM
04:15
Clear
27°F / -3°C 14°F / -10°C 59% 30.3 in
(1026 mb)
Calm - 10SM
03:55
Clear
27°F / -3°C 14°F / -10°C 59% 30.3 in
(1026 mb)
Calm - 10SM
03:35
Clear
27°F / -3°C 14°F / -10°C 59% 30.3 in
(1026 mb)
Calm - 10SM
03:15
Clear
25°F / -4°C 14°F / -10°C 63% 30.3 in
(1026 mb)
Calm - 10SM
02:55
Clear
27°F / -3°C 16°F / -9°C 64% 30.3 in
(1026 mb)
Calm - 10SM
02:35
Clear
25°F / -4°C 16°F / -9°C 69% 30.27 in
(1025 mb)
Calm - 10SM
02:15
Clear
23°F / -5°C 18°F / -8°C 80% 30.27 in
(1025 mb)
Calm - 10SM
01:55
Clear
27°F / -3°C 18°F / -8°C 69% 30.27 in
(1025 mb)
Calm - 10SM
01:35
Clear
27°F / -3°C 16°F / -9°C 64% 30.27 in
(1025 mb)
Calm - 10SM
01:15
Clear
27°F / -3°C 16°F / -9°C 64% 30.24 in
(1024 mb)
Calm - 10SM
00:55
Clear
27°F / -3°C 18°F / -8°C 69% 30.24 in
(1024 mb)
Calm - 10SM
00:35
Clear
25°F / -4°C 18°F / -8°C 74% 30.24 in
(1024 mb)
Calm - 10SM
00:15
Clear
25°F / -4°C 18°F / -8°C 74% 30.24 in
(1024 mb)
Calm - 10SM
Time Weather Temperature Dewpoint Humidity Pressure Winds Precip Visibility


Weather for websites

WeatherForYou.com, LLC is not responsible for any damages or problems caused by this service. Current weather conditions are obtained from the closest station including government and personal stations which may have varying degrees of accuracy. Weather forecasts are derived from the NOAA NDFD. Like all things, this site belongs to Jesus Christ... He just trusts me to maintain it. If you have any questions or comments email webmaster@weatherforyou.com

Copyright © 2014, WeatherForYou.com LLC. All rights reserved.